« Back
NWS Peachtree City, Ga » Text Product » CSG Terminal Aerodrome Forecast


Printer-friendly Version
Current Version              Previous Versions:   1  2  3  4  5  6  7  8  9  

Terminal Aerodrome Forecast

234
FTUS42 KFFC 311951 AAA
TAFCSG
TAF AMD
KCSG 311951Z 3120/0118 28010G20KT P6SM SCT060 BKN080
     FM312100 28010G18KT P6SM VCSH BKN060
      TEMPO 3122/0102 28015G35KT 2SM TSRA BR BKN020CB
     FM010500 29006KT P6SM VCSH SCT050 BKN080
     FM010900 26004KT P6SM FEW020 SCT100
     FM011600 31006KT P6SM SCT050=



USA.gov is the U.S. government's official web portal to all federal, state and local government web resources and services.